Tracking 29892 objects as of 21-Nov-2024
HD Live streaming from Space Station
objects crossing your sky now

MAROC TUBSAT

Track MAROC TUBSAT now!
10-day predictions
MAROC TUBSAT is classified as:


NORAD ID: 27004
Int'l Code: 2001-056D
Perigee: 991.2 km
Apogee: 1,020.6 km
Inclination: 99.8 °
Period: 105.1 minutes
Semi major axis: 7376 km
RCS: 0.3575 m2 (medium)
Launch date: December 10, 2001
Source: Germany (GER)
Launch site: TYURATAM MISSILE AND SPACE COMPLEX (TTMTR)
Your satellite tracking list
Your tracking list is empty




NASA's NSSDC Master Catalog

Two Line Element Set (TLE):
1 27004U 01056D   24325.44019507 -.00000014  00000-0  36615-4 0  9992
2 27004  99.7527 121.8427 0019916 170.9643 203.9048 13.70225180147619
Source of the keplerian elements: AFSPC